Location: �bnet
(46.9957°N, 8.4908°E)
Time: 00:42:43
(UTC+00:00)

SJ 16-02 - Pass Details

Date: 11 May 2021
Orbit: 606 x 616 km, 75.0° (Epoch: 22 June)

Event Time Altitude Azimuth Distance (km) Brightness Sun altitude
Exits shadow 19:42:29 11° 124° (SE) 1,934 3.2 -8.3°
Maximum altitude 19:44:37 14° 94° (E) 1,713 3.1 -8.6°
Drops below altitude 10° 19:46:58 10° 62° (ENE) 1,985 3.7 -8.9°
Sets 19:50:08 0° 38° (NE) 2,897 4.8 -9.3°
